Location: Bourth
(48.7670°N, 0.8113°E)
Time: 09:06:46
(UTC+02:00)

N. Korean satellite - Visible Passes

Search period start: 23 September 2021 00:00
Search period end: 03 October 2021 00:00
Orbit: 448 x 498 km, 97.3° (Epoch: 22 September)

Date Brightness Start Highest point End Pass type
(mag) Time Alt. Az. Time Alt. Az. Time Alt. Az.
23 Sep 9.5 06:28:23 10° NE 06:31:01 19° E 06:33:39 10° SE visible
25 Sep 7.5 07:05:24 10° NNE 07:08:52 52° E 07:12:22 10° S visible
26 Sep 9.1 06:37:58 10° NE 06:40:58 25° E 06:43:59 10° SSE visible
27 Sep 9.9 06:11:18 10° ENE 06:12:57 13° E 06:14:38 10° ESE visible
28 Sep 6.9 07:15:09 10° NNE 07:18:43 70° ESE 07:22:18 10° S visible
29 Sep 8.6 06:47:34 10° NNE 06:50:50 32° E 06:54:06 10° SSE visible
30 Sep 9.7 06:20:28 10° NE 06:22:50 16° E 06:25:11 10° SE visible
02 Oct 8.0 06:57:08 10° NNE 07:00:36 42° E 07:04:03 10° S visible
